DW5977 Weather Reports


time (UTC)temp
C
wind
direction
speed
KPH
gust
KPH
rain 1hr
cm
rain 24hr
cm
rain mn
cm
humidity
%
barometer
mb
20260509211503 16 259 4.8 14.5 0.00 0.00 0.00 65 1003.2
20260509211003 16 256 6.4 16.1 0.00 0.00 0.00 65 1003.2
20260509210503 16 242 6.4 16.1 0.00 0.00 0.00 64 1003.2
20260509204503 16 242 4.8 14.5 0.00 0.00 0.00 66 1003.1
20260509204012 16 243 6.4 14.5 0.00 0.00 0.00 64 1003.2
20260509202025 17 219 6.4 14.5 0.00 0.00 0.00 59 1003.3
20260509201504 18 238 6.4 16.1 0.00 0.00 0.00 62 1003.3
20260509201024 18 237 8.0 17.7 0.00 0.00 0.00 58 1003.3
20260509200524 18 224 6.4 17.7 0.00 0.00 0.00 61 1003.4
20260509200003 18 223 6.4 17.7 0.00 0.00 0.00 60 1003.3
20260509195503 18 225 8.0 17.7 0.00 0.00 0.00 60 1003.3
20260509195003 18 232 8.0 16.1 0.00 0.00 0.00 61 1003.4
20260509194503 18 231 6.4 16.1 0.00 0.00 0.00 61 1003.4
20260509194003 18 226 6.4 16.1 0.00 0.00 0.00 61 1003.6
20260509193524 18 239 6.4 16.1 0.00 0.00 0.00 62 1003.9
20260509193003 17 234 6.4 17.7 0.00 0.00 0.00 62 1003.9
20260509192503 18 220 6.4 17.7 0.00 0.00 0.00 62 1004.1
20260509192003 17 230 6.4 17.7 0.00 0.00 0.00 62 1004.0
20260509191503 17 251 8.0 17.7 0.00 0.00 0.00 62 1004.0
20260509191003 17 236 6.4 19.3 0.00 0.00 0.00 61 1004.1
20260509190503 17 212 6.4 19.3 0.00 0.00 0.00 64 1004.3
20260509190003 17 231 8.0 22.5 0.00 0.00 0.00 63 1004.4
20260509185503 17 224 8.0 22.5 0.00 0.00 0.00 65 1004.7
20260509185003 17 212 6.4 16.1 0.00 0.00 0.00 65 1004.6
20260509184503 17 219 6.4 16.1 0.00 0.00 0.00 65 1004.4
20260509184003 17 212 6.4 16.1 0.00 0.00 0.00 66 1004.5
20260509183503 17 210 6.4 17.7 0.00 0.00 0.00 67 1004.5
20260509183003 17 218 6.4 17.7 0.00 0.00 0.00 67 1004.6
20260509182503 16 202 6.4 16.1 0.00 0.00 0.00 66 1004.8
20260509182003 17 191 6.4 17.7 0.00 0.00 0.00 65 1004.7
20260509181503 17 222 6.4 17.7 0.00 0.00 0.00 65 1004.8
20260509181003 17 237 6.4 14.5 0.00 0.00 0.00 65 1004.9
20260509180503 16 243 6.4 16.1 0.00 0.00 0.00 68 1004.9
20260509180003 16 244 8.0 16.1 0.00 0.00 0.00 67 1005.0
20260509175503 16 251 8.0 19.3 0.00 0.00 0.00 67 1005.1
20260509175003 16 256 9.7 19.3 0.00 0.00 0.00 66 1005.2
20260509174503 16 241 8.0 17.7 0.00 0.00 0.00 65 1005.3
20260509174003 16 249 9.7 24.1 0.00 0.00 0.00 65 1005.3
20260509173503 16 256 9.7 24.1 0.00 0.00 0.00 65 1005.3
20260509173024 17 236 8.0 19.3 0.00 0.00 0.00 63 1005.3
20260509172503 17 217 6.4 16.1 0.00 0.00 0.00 65 1005.3
20260509172003 16 226 4.8 14.5 0.00 0.00 0.00 62 1005.3
20260509171503 17 240 6.4 14.5 0.00 0.00 0.00 62 1005.3
20260509171003 16 244 6.4 16.1 0.00 0.00 0.00 65 1005.3
20260509170504 16 232 6.4 17.7 0.00 0.00 0.00 64 1005.4
20260509170003 16 231 6.4 17.7 0.00 0.00 0.00 63 1005.4
20260509165503 16 213 6.4 17.7 0.00 0.00 0.00 63 1005.4
20260509165003 16 198 6.4 16.1 0.00 0.00 0.00 62 1005.5
20260509164503 16 237 8.0 16.1 0.00 0.00 0.00 60 1005.5
20260509164003 16 234 8.0 16.1 0.00 0.00 0.00 61 1005.6
20260509163503 17 197 6.4 14.5 0.00 0.00 0.00 63 1005.5
20260509163003 16 204 6.4 14.5 0.00 0.00 0.00 61 1005.5
20260509162503 16 209 6.4 22.5 0.00 0.00 0.00 63 1005.8
20260509162024 16 183 6.4 22.5 0.00 0.00 0.00 61 1005.8
20260509161524 16 173 6.4 16.1 0.00 0.00 0.00 62 1005.7
20260509161003 16 191 6.4 16.1 0.00 0.00 0.00 64 1005.9
20260509160503 15 175 6.4 14.5 0.00 0.00 0.00 64 1005.9
20260509160003 15 166 6.4 14.5 0.00 0.00 0.00 62 1006.0
20260509155503 16 195 6.4 14.5 0.00 0.00 0.00 65 1006.0
20260509155024 15 204 6.4 14.5 0.00 0.00 0.00 63 1006.0
20260509154503 15 214 4.8 14.5 0.00 0.00 0.00 66 1006.0
20260509154003 15 193 6.4 14.5 0.00 0.00 0.00 65 1006.0
20260509153524 15 186 4.8 14.5 0.00 0.00 0.00 66 1006.0
20260509153003 15 211 4.8 12.9 0.00 0.00 0.00 66 1006.1
20260509152503 15 195 4.8 14.5 0.00 0.00 0.00 68 1006.1
20260509152003 15 192 4.8 14.5 0.00 0.00 0.00 67 1006.1
20260509151503 15 215 4.8 14.5 0.00 0.00 0.00 66 1006.0
20260509151024 15 196 4.8 14.5 0.00 0.00 0.00 69 1006.0
20260509150503 14 180 4.8 12.9 0.00 0.00 0.00 70 1006.0
20260509150024 14 186 3.2 11.3 0.00 0.00 0.00 69 1006.0
20260509145503 14 195 4.8 11.3 0.00 0.00 0.00 71 1006.0
20260509145003 14 187 4.8 11.3 0.00 0.00 0.00 72 1006.1
20260509144503 14 174 4.8 11.3 0.00 0.00 0.00 72 1006.1
20260509144003 13 188 4.8 16.1 0.00 0.00 0.00 72 1006.1
20260509143524 13 219 6.4 16.1 0.00 0.00 0.00 73 1006.2
20260509143003 13 240 6.4 16.1 0.00 0.00 0.00 73 1006.2
20260509142503 13 236 6.4 16.1 0.00 0.00 0.00 72 1006.2
20260509142003 14 215 4.8 14.5 0.00 0.00 0.00 73 1006.2
20260509141503 14 205 4.8 14.5 0.00 0.00 0.00 72 1006.4
20260509141003 13 212 4.8 12.9 0.00 0.00 0.00 73 1006.4
20260509140503 13 211 4.8 16.1 0.00 0.00 0.00 74 1006.4
20260509140003 13 215 4.8 16.1 0.00 0.00 0.00 73 1006.5
20260509135503 13 208 4.8 16.1 0.00 0.00 0.00 73 1006.5
20260509135003 13 194 4.8 12.9 0.00 0.00 0.00 74 1006.4
20260509134503 13 180 4.8 17.7 0.00 0.00 0.00 75 1006.5
20260509134024 13 174 6.4 17.7 0.00 0.00 0.00 75 1006.4
20260509133503 13 176 4.8 14.5 0.00 0.00 0.00 76 1006.3
20260509133024 13 169 6.4 14.5 0.00 0.00 0.00 76 1006.4
20260509132524 13 166 6.4 14.5 0.00 0.00 0.00 77 1006.6
20260509132003 13 166 6.4 14.5 0.00 0.00 0.00 77 1006.7
20260509131503 12 170 4.8 12.9 0.00 0.00 0.00 77 1006.8
20260509131003 12 170 4.8 12.9 0.00 0.00 0.00 78 1006.9
20260509130503 12 167 4.8 12.9 0.00 0.03 0.00 78 1006.9
20260509130003 12 164 4.8 14.5 0.00 0.03 0.00 79 1006.9
20260509125503 12 162 4.8 14.5 0.00 0.03 0.00 80 1006.9
20260509125003 12 161 4.8 11.3 0.00 0.03 0.00 80 1006.9
20260509124503 11 161 4.8 9.7 0.00 0.03 0.00 81 1006.9
20260509124003 11 165 4.8 9.7 0.00 0.03 0.00 81 1006.9
20260509123503 11 167 4.8 12.9 0.00 0.03 0.00 82 1007.0
20260509123003 11 166 4.8 12.9 0.00 0.03 0.00 82 1007.0
20260509122503 11 164 3.2 11.3 0.00 0.03 0.00 83 1007.0
20260509122003 10 159 3.2 11.3 0.00 0.03 0.00 83 1007.1
20260509121524 10 161 3.2 9.7 0.00 0.03 0.00 83 1007.2
20260509121003 10 161 3.2 9.7 0.00 0.03 0.00 84 1007.2
20260509120503 10 155 3.2 8.0 0.00 0.03 0.00 85 1007.2
20260509120003 10 156 1.6 8.0 0.00 0.03 0.00 85 1007.2
20260509115503 9 155 3.2 8.0 0.00 0.03 0.00 85 1007.2
20260509115003 9 152 3.2 9.7 0.00 0.03 0.00 86 1007.1
20260509114503 8 151 3.2 9.7 0.00 0.05 0.00 86 1007.1
20260509114003 8 154 3.2 8.0 0.00 0.05 0.00 87 1007.1
20260509113524 8 156 3.2 8.0 0.00 0.08 0.00 87 1007.1
20260509113003 8 159 1.6 8.0 0.00 0.10 0.00 88 1007.1
20260509112503 7 161 1.6 6.4 0.00 0.13 0.00 88 1007.3
20260509112024 7 162 0.0 6.4 0.00 0.15 0.00 88 1007.3
20260509111503 7 0 0.0 0.0 0.00 0.18 0.00 88 1007.3
20260509111003 7 0 0.0 0.0 0.00 0.18 0.00 87 1007.3
20260509110503 6 0 0.0 0.0 0.00 0.18 0.00 87 1007.3
20260509110003 6 0 0.0 0.0 0.00 0.18 0.00 87 1007.3
20260509105503 6 163 0.0 1.6 0.00 0.18 0.00 87 1007.3
20260509105003 6 163 0.0 3.2 0.00 0.18 0.00 87 1007.3
20260509104503 6 163 0.0 4.8 0.00 0.18 0.00 87 1007.2
20260509104003 6 163 0.0 4.8 0.00 0.20 0.00 87 1007.3
20260509103503 5 164 0.0 1.6 0.00 0.20 0.00 87 1007.2
20260509103003 5 164 0.0 1.6 0.00 0.23 0.00 87 1007.3
20260509102503 5 164 0.0 1.6 0.00 0.23 0.00 86 1007.3
20260509102003 5 0 0.0 0.0 0.00 0.23 0.00 85 1007.2
20260509101503 5 0 0.0 0.0 0.00 0.23 0.00 85 1007.2
20260509101003 5 0 0.0 0.0 0.00 0.23 0.00 85 1007.3
20260509100524 5 0 0.0 0.0 0.00 0.23 0.00 84 1007.2
20260509100004 5 0 0.0 0.0 0.00 0.25 0.00 84 1007.2
20260509095524 5 0 0.0 0.0 0.00 0.25 0.00 84 1007.1
20260509095024 6 0 0.0 0.0 0.00 0.25 0.00 84 1007.1
20260509094503 6 164 0.0 1.6 0.00 0.25 0.00 84 1007.0
20260509094003 6 164 0.0 3.2 0.00 0.25 0.00 84 1007.1
20260509093503 6 164 0.0 3.2 0.00 0.25 0.00 84 1007.1
20260509093003 6 164 0.0 3.2 0.00 0.25 0.00 84 1007.2
20260509092503 6 164 0.0 3.2 0.00 0.25 0.00 84 1007.2
20260509092003 6 164 0.0 3.2 0.00 0.25 0.00 84 1007.2
20260509091503 6 164 0.0 3.2 0.00 0.25 0.00 83 1007.3
20260509091003 6 164 0.0 3.2 0.00 0.25 0.00 83 1007.2
20260509090524 5 164 0.0 3.2 0.00 0.25 0.00 82 1007.2
20260509090003 5 164 0.0 1.6 0.00 0.25 0.00 82 1007.2
20260509085524 5 164 0.0 1.6 0.00 0.25 0.00 81 1007.2
20260509085003 6 164 0.0 1.6 0.00 0.25 0.00 81 1007.3
20260509084503 6 164 0.0 1.6 0.00 0.25 0.00 81 1007.3
20260509084003 6 164 0.0 1.6 0.00 0.25 0.00 81 1007.3
20260509083503 6 164 0.0 3.2 0.00 0.25 0.00 80 1007.4
20260509083003 6 164 0.0 3.2 0.00 0.25 0.00 80 1007.3
20260509082503 5 165 0.0 3.2 0.00 0.25 0.00 80 1007.4
20260509082003 5 165 1.6 6.4 0.00 0.25 0.00 80 1007.5
20260509081503 5 165 1.6 8.0 0.00 0.25 0.00 80 1007.5
20260509081024 5 165 1.6 8.0 0.00 0.25 0.00 79 1007.5
20260509080503 5 166 1.6 6.4 0.00 0.25 0.00 79 1007.4
20260509080024 5 169 1.6 6.4 0.00 0.25 0.00 79 1007.6
20260509075524 5 173 1.6 4.8 0.00 0.25 0.00 79 1007.6
20260509075003 5 173 1.6 4.8 0.00 0.25 0.00 78 1007.7
20260509074503 5 174 1.6 4.8 0.00 0.25 0.00 78 1007.8
20260509074003 5 174 1.6 4.8 0.00 0.25 0.00 78 1007.8
20260509073503 4 174 0.0 3.2 0.00 0.25 0.00 78 1007.9
20260509073003 4 174 0.0 1.6 0.00 0.25 0.00 78 1007.9
20260509072524 4 174 0.0 3.2 0.00 0.25 0.00 78 1007.9
20260509072003 4 174 0.0 3.2 0.00 0.25 0.00 77 1007.9
20260509071503 4 174 0.0 1.6 0.00 0.25 0.00 77 1008.0
20260509071003 4 0 0.0 0.0 0.00 0.25 0.00 77 1008.1
20260509070503 4 0 0.0 0.0 0.00 0.25 0.00 77 1008.1
20260509070003 4 174 0.0 1.6 0.00 0.25 0.00 77 1008.1
20260509065503 4 174 0.0 3.2 0.00 0.25 0.00 77 1008.1
20260509065003 4 174 0.0 3.2 0.00 0.25 0.00 76 1008.1
20260509064503 4 0 0.0 0.0 0.00 0.25 0.00 76 1008.1
20260509064003 4 0 0.0 0.0 0.00 0.25 0.00 76 1008.3
20260509063503 4 174 0.0 3.2 0.00 0.25 0.00 75 1008.4
20260509063024 4 174 0.0 3.2 0.00 0.25 0.00 75 1008.3
20260509062503 4 174 0.0 3.2 0.00 0.25 0.00 74 1008.5
20260509062024 4 174 0.0 3.2 0.00 0.25 0.00 74 1008.6
20260509061504 4 0 0.0 0.0 0.00 0.25 0.00 74 1008.6
20260509061003 4 175 0.0 1.6 0.00 0.25 0.00 74 1008.7
20260509060503 4 175 0.0 1.6 0.00 0.25 0.00 74 1008.8
20260509060003 4 0 0.0 0.0 0.00 0.25 0.00 74 1008.9
20260509055503 4 175 0.0 3.2 0.00 0.25 0.00 74 1008.9
20260509055003 4 175 1.6 3.2 0.00 0.25 0.00 74 1009.0
20260509054524 4 175 1.6 3.2 0.00 0.25 0.00 75 1009.1
20260509054003 4 175 0.0 3.2 0.00 0.25 0.00 75 1009.1
20260509053503 4 175 0.0 3.2 0.00 0.25 0.00 75 1009.1
20260509053024 4 175 0.0 3.2 0.00 0.25 0.00 75 1009.2
20260509052524 4 175 0.0 3.2 0.00 0.25 0.00 75 1009.2
20260509052003 4 175 0.0 3.2 0.00 0.25 0.00 75 1009.3
20260509051503 4 175 0.0 3.2 0.00 0.25 0.00 75 1009.3
20260509051024 4 175 0.0 3.2 0.00 0.25 0.00 75 1009.3
20260509050524 4 175 0.0 1.6 0.00 0.25 0.00 75 1009.4
20260509050003 4 175 0.0 3.2 0.00 0.25 0.00 75 1009.4
20260509045503 4 175 0.0 3.2 0.00 0.25 0.00 75 1009.5
20260509045003 4 175 0.0 1.6 0.00 0.25 0.00 75 1009.6
20260509044503 4 0 0.0 0.0 0.00 0.25 0.00 74 1009.6
20260509044003 4 0 0.0 0.0 0.00 0.25 0.00 75 1009.6
20260509043503 4 191 1.6 4.8 0.00 0.25 0.00 75 1009.6
20260509043003 4 193 1.6 4.8 0.00 0.25 0.00 76 1009.6
20260509042503 4 200 1.6 3.2 0.00 0.25 0.00 78 1009.7
20260509042003 4 200 0.0 3.2 0.00 0.25 0.00 79 1009.7
20260509041524 3 200 0.0 3.2 0.00 0.25 0.00 80 1009.9
20260509041003 3 0 0.0 0.0 0.00 0.25 0.00 81 1009.9
20260509040503 3 201 0.0 1.6 0.00 0.25 0.00 81 1009.9
20260509040003 3 201 0.0 1.6 0.00 0.25 0.00 81 1009.9
20260509035503 3 0 0.0 0.0 0.00 0.25 0.25 80 1009.9
20260509035024 3 0 0.0 0.0 0.00 0.25 0.25 80 1009.9
20260509034503 3 201 0.0 1.6 0.00 0.25 0.25 79 1010.0
20260509034003 4 201 0.0 1.6 0.00 0.25 0.25 79 1010.1
20260509033503 4 0 0.0 0.0 0.00 0.25 0.25 78 1010.1
20260509033003 4 0 0.0 0.0 0.00 0.25 0.25 78 1010.1
20260509032524 4 201 0.0 1.6 0.00 0.25 0.25 78 1010.2
20260509032003 4 201 0.0 1.6 0.00 0.25 0.25 78 1010.2
20260509031503 4 201 0.0 3.2 0.00 0.25 0.25 77 1010.3
20260509031003 4 201 0.0 3.2 0.00 0.25 0.25 78 1010.3
20260509030524 5 0 0.0 0.0 0.00 0.25 0.25 77 1010.3
20260509030003 5 0 0.0 0.0 0.00 0.25 0.25 76 1010.2
20260509025524 5 0 0.0 0.0 0.00 0.25 0.25 75 1010.3
20260509025003 5 0 0.0 0.0 0.00 0.25 0.25 75 1010.3
20260509024524 5 0 0.0 0.0 0.00 0.25 0.25 75 1010.3
20260509024003 5 0 0.0 0.0 0.00 0.25 0.25 74 1010.3
20260509023503 5 0 0.0 0.0 0.00 0.25 0.25 74 1010.3
20260509023003 5 0 0.0 0.0 0.00 0.25 0.25 73 1010.3
20260509022503 5 0 0.0 0.0 0.00 0.25 0.25 72 1010.1
20260509022003 6 0 0.0 0.0 0.00 0.25 0.25 71 1010.1
20260509021503 6 0 0.0 0.0 0.00 0.28 0.25 70 1010.2
20260509021003 6 0 0.0 0.0 0.00 0.28 0.25 69 1010.2
20260509020503 6 0 0.0 0.0 0.00 0.28 0.25 69 1010.1
20260509020003 6 0 0.0 0.0 0.00 0.28 0.25 67 1010.1
20260509015503 6 0 0.0 0.0 0.00 0.28 0.25 66 1010.1
20260509015003 7 0 0.0 0.0 0.00 0.28 0.25 65 1010.0
20260509014524 7 0 0.0 0.0 0.00 0.28 0.25 64 1010.0
20260509014003 7 0 0.0 0.0 0.00 0.28 0.25 62 1010.1
20260509013503 7 0 0.0 0.0 0.00 0.28 0.25 62 1010.0
20260509013003 7 0 0.0 0.0 0.00 0.28 0.25 60 1010.0
20260509012503 8 0 0.0 0.0 0.00 0.28 0.25 58 1009.9
20260509012024 8 0 0.0 0.0 0.00 0.28 0.25 56 1009.8
20260509011503 8 0 0.0 0.0 0.00 0.28 0.25 55 1009.7
20260509011024 8 0 0.0 0.0 0.00 0.28 0.25 53 1009.8
20260509010503 9 0 0.0 0.0 0.00 0.28 0.25 52 1009.8
20260509010003 10 202 0.0 1.6 0.00 0.28 0.25 51 1009.7
20260509005503 10 202 0.0 1.6 0.00 0.28 0.25 49 1009.7
20260509005003 10 0 0.0 0.0 0.00 0.28 0.25 49 1009.7
20260509004503 10 202 0.0 1.6 0.00 0.28 0.25 46 1009.7
20260509004003 10 202 0.0 3.2 0.00 0.28 0.25 45 1009.7
20260509003503 10 202 0.0 4.8 0.00 0.28 0.25 44 1009.7
20260509003024 11 198 1.6 6.4 0.00 0.28 0.25 44 1009.7
20260509002524 11 197 0.0 6.4 0.00 0.28 0.25 43 1009.6
20260509002003 11 197 0.0 3.2 0.00 0.28 0.25 42 1009.6
20260509001503 11 197 1.6 4.8 0.00 0.28 0.25 42 1009.5
20260509001003 11 197 1.6 4.8 0.00 0.28 0.25 41 1009.5
20260509000503 11 197 0.0 4.8 0.00 0.28 0.25 42 1009.5
20260509000003 11 197 0.0 4.8 0.00 0.28 0.25 39 1009.3
20260508235503 11 197 1.6 4.8 0.00 0.28 0.25 40 1009.4
20260508235024 11 197 1.6 4.8 0.00 0.28 0.25 39 1009.4
20260508234503 11 212 1.6 9.7 0.00 0.28 0.25 38 1009.4
20260508234003 11 232 3.2 9.7 0.00 0.28 0.25 37 1009.4
20260508233524 11 225 4.8 11.3 0.00 0.28 0.25 36 1009.5
20260508233024 12 213 4.8 11.3 0.00 0.28 0.25 35 1009.4
20260508232503 12 210 3.2 8.0 0.00 0.28 0.25 37 1009.4
20260508232003 12 212 4.8 11.3 0.00 0.28 0.25 35 1009.4
20260508231503 12 215 4.8 11.3 0.00 0.28 0.25 34 1009.4
20260508231024 12 221 4.8 12.9 0.00 0.28 0.25 32 1009.5
20260508230503 13 223 4.8 12.9 0.00 0.28 0.25 32 1009.4
20260508230003 13 226 4.8 14.5 0.00 0.28 0.25 32 1009.4
20260508225503 13 244 4.8 14.5 0.00 0.28 0.25 31 1009.3
20260508225003 13 249 4.8 14.5 0.00 0.28 0.25 29 1009.3
20260508224503 13 241 4.8 14.5 0.00 0.28 0.25 31 1009.3
20260508224003 13 226 4.8 16.1 0.00 0.28 0.25 30 1009.5
20260508223503 13 222 6.4 17.7 0.00 0.28 0.25 30 1009.4
20260508223003 13 225 8.0 17.7 0.00 0.28 0.25 29 1009.5
20260508222503 13 235 8.0 17.7 0.00 0.28 0.25 29 1009.6
20260508222003 13 247 6.4 17.7 0.00 0.28 0.25 29 1009.5
20260508221503 13 222 4.8 12.9 0.00 0.28 0.25 32 1009.5
20260508221003 13 231 6.4 17.7 0.00 0.28 0.25 33 1009.5
20260508220503 13 234 6.4 17.7 0.00 0.28 0.25 34 1009.5
20260508220024 13 219 6.4 14.5 0.00 0.28 0.25 34 1009.6
20260508215524 13 214 6.4 16.1 0.00 0.28 0.25 34 1009.5
20260508215003 13 210 4.8 16.1 0.00 0.28 0.25 32 1009.5
20260508214503 13 222 4.8 14.5 0.00 0.28 0.25 35 1009.6
20260508214003 13 232 6.4 17.7 0.00 0.28 0.25 34 1009.5
20260508213503 13 230 6.4 20.9 0.00 0.28 0.25 33 1009.5
20260508213003 13 233 6.4 20.9 0.00 0.28 0.25 32 1009.5
20260508212503 13 251 8.0 17.7 0.00 0.28 0.25 32 1009.5
20260508212003 13 250 6.4 17.7 0.00 0.28 0.25 31 1009.6